When you browse on this site, cookies collect data to enhance your experience and personalize the content and advertising you see.
Visit our Privacy Policy to learn more. By continuing to use the site, you agree to this use of cookies and data.
  • In Schweiz
  • Länderverzeichnis
  • Für 7 Tage
  • Wassertemperatur
  • Satellitenkarten
  • Wetterkarte
  • Widgets
  • user-avatar
    Anmelden

    Stündliche Wetter Sankt Pölten

    Heute, 21 März, Donnerstag

    Zeit Temperatur Niederschläge Wind Luftdruck Luftfeuchtigkeit
    00:00 +2°C° 0 mm 1 m/S 750 mmHg 70%
    01:00 +2°C° 0 mm 1 m/S 750 mmHg 71%
    02:00 +2°C° 0 mm 1 m/S 750 mmHg 71%
    03:00 +2°C° 0 mm 1 m/S 750 mmHg 71%
    04:00 +2°C° 0 mm 1 m/S 750 mmHg 70%
    05:00 +2°C° 0 mm 1 m/S 750 mmHg 68%
    06:00 +3°C° 0 mm 1 m/S 750 mmHg 66%
    07:00 +4°C° 0 mm 1 m/S 750 mmHg 60%
    08:00 +6°C° 0 mm 1 m/S 750 mmHg 54%
    09:00 +8°C° 0 mm 1 m/S 750 mmHg 48%
    10:00 +11°C° 0 mm 1 m/S 750 mmHg 42%
    11:00 +12°C° 0 mm 1 m/S 749 mmHg 40%
    12:00 +13°C° 0 mm 2 m/S 749 mmHg 38%
    13:00 +14°C° 0 mm 2 m/S 748 mmHg 36%
    14:00 +14°C° 0 mm 2 m/S 748 mmHg 37%
    15:00 +14°C° 0 mm 2 m/S 747 mmHg 39%
    16:00 +13°C° 0 mm 2 m/S 747 mmHg 41%
    17:00 +10°C° 0 mm 2 m/S 747 mmHg 48%
    18:00 +8°C° 0 mm 2 m/S 747 mmHg 55%
    19:00 +7°C° 0 mm 1 m/S 747 mmHg 62%
    20:00 +6°C° 0 mm 1 m/S 747 mmHg 63%
    21:00 +6°C° 0 mm 1 m/S 748 mmHg 65%
    22:00 +6°C° 0 mm 1 m/S 748 mmHg 66%
    23:00 +5°C° 0 mm 1 m/S 748 mmHg 67%

    Morgen, 22 März, Freitag

    Zeit Temperatur Niederschläge Wind Luftdruck Luftfeuchtigkeit
    00:00 +5°C° 0 mm 1 m/S 748 mmHg 67%
    01:00 +5°C° 0 mm 1 m/S 748 mmHg 67%
    02:00 +5°C° 0 mm 1 m/S 747 mmHg 67%
    03:00 +5°C° 0 mm 1 m/S 747 mmHg 67%
    04:00 +5°C° 0 mm 1 m/S 747 mmHg 66%
    05:00 +5°C° 0 mm 1 m/S 747 mmHg 65%
    06:00 +5°C° 0 mm 1 m/S 747 mmHg 65%
    07:00 +6°C° 0 mm 1 m/S 747 mmHg 64%
    08:00 +8°C° 0 mm 1 m/S 747 mmHg 57%
    09:00 +11°C° 0 mm 1 m/S 747 mmHg 51%
    10:00 +13°C° 0 mm 2 m/S 747 mmHg 44%
    11:00 +15°C° 0 mm 2 m/S 747 mmHg 44%
    12:00 +16°C° 0 mm 2 m/S 746 mmHg 44%
    13:00 +17°C° 0 mm 3 m/S 746 mmHg 43%
    14:00 +17°C° 0 mm 3 m/S 746 mmHg 46%
    15:00 +17°C° 0 mm 3 m/S 745 mmHg 48%
    16:00 +17°C° 0 mm 3 m/S 745 mmHg 51%
    17:00 +14°C° 0 mm 3 m/S 745 mmHg 59%
    18:00 +12°C° 0 mm 2 m/S 745 mmHg 67%
    19:00 +9°C° 0 mm 2 m/S 745 mmHg 75%
    20:00 +10°C° 0 mm 1 m/S 745 mmHg 76%
    21:00 +9°C° 0 mm 1 m/S 745 mmHg 76%
    22:00 +9°C° 0 mm 1 m/S 745 mmHg 77%
    23:00 +8°C° 0 mm 1 m/S 745 mmHg 77%

    übermorgen, 23 März, Samstag

    Zeit Temperatur Niederschläge Wind Luftdruck Luftfeuchtigkeit
    00:00 +8°C° 0 mm 1 m/S 745 mmHg 77%
    01:00 +8°C° 0 mm 1 m/S 745 mmHg 76%
    02:00 +7°C° 0 mm 1 m/S 745 mmHg 77%
    03:00 +7°C° 0 mm 1 m/S 744 mmHg 77%
    04:00 +7°C° 0 mm 1 m/S 744 mmHg 78%
    05:00 +7°C° 0 mm 1 m/S 744 mmHg 77%
    06:00 +7°C° 0 mm 1 m/S 744 mmHg 75%
    07:00 +8°C° 0 mm 1 m/S 744 mmHg 74%
    08:00 +10°C° 0 mm 1 m/S 744 mmHg 65%
    09:00 +13°C° 0 mm 1 m/S 744 mmHg 57%
    10:00 +16°C° 0 mm 1 m/S 744 mmHg 48%
    11:00 +18°C° 0 mm 1 m/S 744 mmHg 46%
    12:00 +19°C° 0 mm 1 m/S 743 mmHg 43%
    13:00 +20°C° 0 mm 1 m/S 743 mmHg 41%
    14:00 +20°C° 0 mm 1 m/S 743 mmHg 42%
    15:00 +19°C° 0 mm 1 m/S 742 mmHg 43%
    16:00 +19°C° 0 mm 1 m/S 742 mmHg 45%
    17:00 +16°C° 0 mm 1 m/S 742 mmHg 53%
    18:00 +14°C° 0 mm 1 m/S 742 mmHg 61%
    19:00 +12°C° 0 mm 1 m/S 742 mmHg 70%
    20:00 +11°C° 0 mm 1 m/S 742 mmHg 72%
    21:00 +11°C° 0 mm 1 m/S 743 mmHg 75%
    22:00 +10°C° 0 mm 1 m/S 743 mmHg 78%
    23:00 +10°C° 0 mm 1 m/S 743 mmHg 79%

    24 März, Sonntag

    Zeit Temperatur Niederschläge Wind Luftdruck Luftfeuchtigkeit
    00:00 +9°C° 0 mm 1 m/S 743 mmHg 80%
    01:00 +9°C° 0 mm 1 m/S 742 mmHg 81%
    02:00 +9°C° 0 mm 1 m/S 742 mmHg 82%
    03:00 +9°C° 0 mm 1 m/S 742 mmHg 83%
    04:00 +8°C° 0 mm 1 m/S 742 mmHg 83%
    05:00 +9°C° 0 mm 1 m/S 742 mmHg 82%
    06:00 +9°C° 0 mm 1 m/S 742 mmHg 81%
    07:00 +9°C° 0 mm 1 m/S 742 mmHg 80%
    08:00 +11°C° 0 mm 1 m/S 742 mmHg 73%
    09:00 +14°C° 0 mm 1 m/S 742 mmHg 66%
    10:00 +16°C° 0 mm 1 m/S 742 mmHg 59%
    11:00 +18°C° 0 mm 1 m/S 741 mmHg 57%
    12:00 +18°C° 0 mm 1 m/S 741 mmHg 56%
    13:00 +18°C° 0 mm 2 m/S 741 mmHg 55%
    14:00 +17°C° 0 mm 2 m/S 740 mmHg 58%
    15:00 +17°C° 0 mm 2 m/S 740 mmHg 61%
    16:00 +16°C° 0 mm 1 m/S 740 mmHg 64%
    17:00 +15°C° 0.1 mm 1 m/S 740 mmHg 73%
    18:00 +13°C° 0.1 mm 1 m/S 740 mmHg 81%
    19:00 +12°C° 0.1 mm 1 m/S 740 mmHg 90%
    20:00 +11°C° 0.2 mm 1 m/S 741 mmHg 90%
    21:00 +10°C° 0.2 mm 1 m/S 741 mmHg 91%
    22:00 +9°C° 0.2 mm 2 m/S 741 mmHg 91%
    23:00 +10°C° 0.2 mm 1 m/S 741 mmHg 91%

    25 März, Montag

    Zeit Temperatur Niederschläge Wind Luftdruck Luftfeuchtigkeit
    00:00 +9°C° 0.2 mm 1 m/S 742 mmHg 90%
    01:00 +9°C° 0.2 mm 1 m/S 742 mmHg 89%
    02:00 +9°C° 0.2 mm 1 m/S 742 mmHg 89%
    03:00 +8°C° 0.2 mm 1 m/S 742 mmHg 88%
    04:00 +8°C° 0.2 mm 1 m/S 742 mmHg 87%
    05:00 +8°C° 0.2 mm 1 m/S 742 mmHg 86%
    06:00 +7°C° 0.2 mm 1 m/S 742 mmHg 84%
    07:00 +7°C° 0.2 mm 1 m/S 743 mmHg 82%
    08:00 +8°C° 0 mm 1 m/S 743 mmHg 75%
    09:00 +8°C° 0 mm 2 m/S 743 mmHg 67%
    10:00 +8°C° 0 mm 2 m/S 743 mmHg 59%
    11:00 +9°C° 0 mm 2 m/S 743 mmHg 56%
    12:00 +10°C° 0 mm 3 m/S 742 mmHg 52%
    13:00 +10°C° 0 mm 4 m/S 742 mmHg 49%
    14:00 +10°C° 0 mm 4 m/S 742 mmHg 50%
    15:00 +10°C° 0 mm 4 m/S 741 mmHg 52%
    16:00 +10°C° 0 mm 4 m/S 741 mmHg 53%
    17:00 +8°C° 0 mm 4 m/S 741 mmHg 56%
    18:00 +8°C° 0 mm 3 m/S 741 mmHg 60%
    19:00 +7°C° 0 mm 3 m/S 742 mmHg 63%
    20:00 +5°C° 0 mm 3 m/S 742 mmHg 65%
    21:00 +5°C° 0 mm 4 m/S 742 mmHg 66%
    22:00 +4°C° 0 mm 4 m/S 742 mmHg 68%
    23:00 +4°C° 0 mm 4 m/S 742 mmHg 70%

    26 März, Dienstag

    Zeit Temperatur Niederschläge Wind Luftdruck Luftfeuchtigkeit
    00:00 +4°C° 0 mm 4 m/S 742 mmHg 73%
    01:00 +3°C° 0 mm 5 m/S 742 mmHg 75%
    02:00 +3°C° 0 mm 5 m/S 742 mmHg 76%
    03:00 +2°C° 0 mm 5 m/S 741 mmHg 77%
    04:00 +2°C° 0 mm 5 m/S 741 mmHg 78%
    05:00 +2°C° 0 mm 6 m/S 741 mmHg 77%
    06:00 +2°C° 0 mm 6 m/S 741 mmHg 76%
    07:00 +3°C° 0 mm 7 m/S 741 mmHg 75%
    08:00 +3°C° 0.1 mm 7 m/S 741 mmHg 73%
    09:00 +4°C° 0.1 mm 8 m/S 740 mmHg 71%
    10:00 +5°C° 0.1 mm 8 m/S 740 mmHg 68%
    11:00 +5°C° 0.4 mm 8 m/S 740 mmHg 68%
    12:00 +5°C° 0.4 mm 8 m/S 740 mmHg 68%
    13:00 +6°C° 0.4 mm 9 m/S 740 mmHg 69%
    14:00 +5°C° 1 mm 8 m/S 740 mmHg 70%
    15:00 +5°C° 1 mm 7 m/S 740 mmHg 72%
    16:00 +5°C° 1 mm 6 m/S 741 mmHg 74%
    17:00 +5°C° 0.3 mm 5 m/S 741 mmHg 76%
    18:00 +4°C° 0.3 mm 4 m/S 742 mmHg 78%
    19:00 +3°C° 0.3 mm 3 m/S 742 mmHg 81%
    20:00 +3°C° 0 mm 2 m/S 743 mmHg 83%
    21:00 +3°C° 0 mm 2 m/S 743 mmHg 85%
    22:00 +2°C° 0 mm 2 m/S 744 mmHg 87%
    23:00 +2°C° 0 mm 2 m/S 744 mmHg 88%
    Mehr zeigen